Weather History for Burlington, WI

Change the Weather History Date:

Thursday, January 10, 2013

  Actual Average (KENW) Record (KENW)
Temperature  
Mean Temperature 30 °F -  
Max Temperature 41 °F 26 °F 52 °F (1950)
Min Temperature 19 °F 9 °F -21 °F (1982)
Degree Days  
Heating Degree Days 35    
Moisture  
Dew Point 28 °F    
Average Humidity 89    
Maximum Humidity 100    
Minimum Humidity 65    
Precipitation  
Precipitation 0.21 in - - ()
Sea Level Pressure  
Sea Level Pressure 30.27 in    
Wind  
Wind Speed 3 mph (ESE)    
Max Wind Speed 13 mph    
Max Gust Speed 18 mph    
Visibility 8 miles    
Events Snow    
Averages and records for this station are not official NWS values.
T = Trace of Precipitation, MM = Missing Value Source: NWS Daily Summary

Daily Weather History Graph

Daily Weather History Graph

Search for Another Location

Airport:

Trip Planner

Search our weather history database for the weather conditions in past years. The results will help you decide how hot, cold, wet, or windy it might be!

Date:

Astronomy

Jan. 10, 2013 Rise Set
Actual Time 7:22 AM CST 4:39 PM CST
Civil Twilight 6:51 AM CST 5:11 PM CST
Nautical Twilight 6:15 AM CST 5:46 PM CST
Astronomical Twilight 5:41 AM CST 6:20 PM CST
Moon 6:02 AM CST (1/10) 3:47 PM CST (1/10)
Length of Visible Light 10h 20m
Length of Day
9h 16m
Waning Crescent, 2% of the Moon is Illuminated
Jan 10
Waning Crescent
Jan 11
New
Jan 18
First Quarter
Jan 26
Full
Feb 3
Last Quarter

Hourly Weather History & Observations

Time (CST) Temp. Windchill Dew Point Humidity Pressure Visibility Wind Dir Wind Speed Gust Speed Precip Events Conditions
12:15 AM 26.6 °F - 23.0 °F 86% 30.47 in 10.0 mi Calm Calm - N/A   Clear
2:15 AM 23.0 °F - 21.2 °F 93% 30.49 in 10.0 mi Calm Calm - N/A   Clear
2:35 AM 21.2 °F - 21.2 °F 100% 30.49 in 10.0 mi Calm Calm - N/A   Clear
2:55 AM 21.2 °F - 21.2 °F 100% 30.48 in 10.0 mi Calm Calm - N/A   Clear
3:15 AM 21.2 °F - 19.4 °F 93% 30.48 in 10.0 mi Calm Calm - N/A   Clear
3:55 AM 21.2 °F - 19.4 °F 93% 30.48 in 10.0 mi Calm Calm - N/A   Clear
4:15 AM 19.4 °F - 19.4 °F 100% 30.47 in 10.0 mi Calm Calm - N/A   Clear
4:35 AM 21.2 °F - 21.2 °F 100% 30.46 in 10.0 mi Calm Calm - N/A   Clear
4:55 AM 21.2 °F - 21.2 °F 100% 30.46 in 10.0 mi Calm Calm - N/A   Clear
5:15 AM 21.2 °F - 21.2 °F 100% 30.46 in 10.0 mi Calm Calm - N/A   Clear
5:35 AM 19.4 °F - 19.4 °F 100% 30.46 in 10.0 mi Calm Calm - N/A   Clear
5:55 AM 19.4 °F - 19.4 °F 100% 30.46 in 10.0 mi Calm Calm - N/A   Clear
6:15 AM 19.4 °F - 19.4 °F 100% 30.45 in 10.0 mi Calm Calm - N/A   Clear
6:55 AM 19.4 °F - 19.4 °F 100% 30.45 in 10.0 mi Calm Calm - N/A   Clear
7:15 AM 21.2 °F - 19.4 °F 93% 30.46 in 10.0 mi Calm Calm - N/A   Clear
7:35 AM 21.2 °F - 19.4 °F 93% 30.45 in 10.0 mi Calm Calm - N/A   Clear
7:55 AM 21.2 °F - 19.4 °F 93% 30.46 in 10.0 mi Calm Calm - N/A   Clear
8:15 AM 21.2 °F - 19.4 °F 93% 30.47 in 10.0 mi Calm Calm - N/A   Clear
8:35 AM 21.2 °F - 21.2 °F 100% 30.45 in 10.0 mi Calm Calm - N/A   Clear
8:55 AM 23.0 °F - 23.0 °F 100% 30.44 in 10.0 mi Calm Calm - N/A   Clear
9:15 AM 26.6 °F - 23.0 °F 86% 30.43 in 10.0 mi Calm Calm - N/A   Clear
9:55 AM 30.2 °F - 28.4 °F 93% 30.42 in 10.0 mi Calm Calm - N/A   Clear
10:35 AM 32.0 °F 28.7 °F 30.2 °F 93% 30.38 in 10.0 mi NE 3.5 mph - N/A   Clear
10:55 AM 35.6 °F 29.2 °F 32.0 °F 87% 30.37 in 10.0 mi ESE 8.1 mph - N/A   Clear
11:15 AM 35.6 °F 29.2 °F 32.0 °F 87% 30.35 in 10.0 mi ESE 8.1 mph - N/A   Clear
11:35 AM 37.4 °F 30.8 °F 32.0 °F 81% 30.34 in 10.0 mi ESE 9.2 mph - N/A   Clear
11:55 AM 37.4 °F 30.8 °F 32.0 °F 81% 30.32 in 10.0 mi ESE 9.2 mph - N/A   Clear
12:15 PM 37.4 °F 30.3 °F 32.0 °F 81% 30.30 in 10.0 mi ESE 10.4 mph - N/A   Clear
12:35 PM 41.0 °F 34.7 °F 32.0 °F 70% 30.28 in 10.0 mi ESE 10.4 mph - N/A   Clear
12:55 PM 39.2 °F 32.0 °F 32.0 °F 75% 30.27 in 10.0 mi ESE 11.5 mph - N/A   Clear
1:15 PM 39.2 °F 32.5 °F 32.0 °F 75% 30.25 in 10.0 mi SE 10.4 mph - N/A   Clear
1:35 PM 41.0 °F 35.2 °F 30.2 °F 65% 30.24 in 10.0 mi ESE 9.2 mph - N/A   Clear
1:55 PM 41.0 °F 34.7 °F 32.0 °F 70% 30.23 in 10.0 mi East 10.4 mph - N/A   Clear
2:15 PM 41.0 °F 34.3 °F 30.2 °F 65% 30.22 in 10.0 mi ESE 11.5 mph - N/A   Clear
2:35 PM 39.2 °F 34.2 °F 30.2 °F 70% 30.22 in 10.0 mi East 6.9 mph - N/A   Clear
2:55 PM 37.4 °F 30.8 °F 30.2 °F 75% 30.20 in 10.0 mi East 9.2 mph - N/A   Clear
3:15 PM 37.4 °F 31.4 °F 30.2 °F 75% 30.21 in 10.0 mi ESE 8.1 mph - N/A   Clear
3:35 PM 37.4 °F 31.4 °F 30.2 °F 75% 30.20 in 10.0 mi ESE 8.1 mph - N/A   Scattered Clouds
3:55 PM 37.4 °F 30.3 °F 30.2 °F 75% 30.20 in 10.0 mi ESE 10.4 mph - N/A   Scattered Clouds
4:15 PM 37.4 °F 30.8 °F 30.2 °F 75% 30.17 in 10.0 mi ESE 9.2 mph - N/A   Scattered Clouds
4:35 PM 35.6 °F 29.9 °F 30.2 °F 81% 30.17 in 10.0 mi ESE 6.9 mph - N/A   Mostly Cloudy
4:55 PM 35.6 °F 29.2 °F 32.0 °F 87% 30.16 in 10.0 mi ESE 8.1 mph - N/A   Overcast
5:15 PM 35.6 °F 28.0 °F 32.0 °F 87% 30.15 in 7.0 mi East 10.4 mph - N/A   Overcast
5:35 PM 35.6 °F 28.0 °F 32.0 °F 87% 30.13 in 10.0 mi East 10.4 mph - N/A   Overcast
5:55 PM 35.6 °F 28.0 °F 32.0 °F 87% 30.11 in 5.0 mi East 10.4 mph 18.4 mph N/A   Overcast
6:15 PM 35.6 °F 27.1 °F 32.0 °F 87% 30.10 in 7.0 mi ESE 12.7 mph - N/A   Overcast
6:35 PM 35.6 °F 27.5 °F 32.0 °F 87% 30.09 in 10.0 mi ESE 11.5 mph - N/A   Overcast
6:55 PM 35.6 °F 28.6 °F 32.0 °F 87% 30.08 in 10.0 mi ESE 9.2 mph - N/A   Overcast
7:15 PM 33.8 °F 25.8 °F 32.0 °F 93% 30.07 in 3.0 mi ESE 10.4 mph 16.1 mph N/A   Overcast
7:35 PM 33.8 °F 26.4 °F 32.0 °F 93% 30.06 in 5.0 mi ESE 9.2 mph 18.4 mph N/A   Overcast
7:55 PM 33.8 °F 26.4 °F 32.0 °F 93% 30.05 in 5.0 mi ESE 9.2 mph 18.4 mph N/A   Overcast
8:35 PM 33.8 °F 27.7 °F 33.8 °F 100% 30.02 in 2.5 mi ESE 6.9 mph - 0.02 in   Overcast
8:55 PM 33.8 °F 27.0 °F 33.8 °F 100% 30.00 in 3.0 mi ESE 8.1 mph - 0.02 in   Overcast
9:15 PM 33.8 °F 28.6 °F 33.8 °F 100% 29.98 in 3.0 mi ESE 5.8 mph - 0.01 in   Overcast
9:35 PM 33.8 °F 28.6 °F 33.8 °F 100% 29.97 in 4.0 mi ESE 5.8 mph - 0.02 in   Overcast
10:15 PM 33.8 °F 29.6 °F 33.8 °F 100% 29.95 in 2.0 mi ESE 4.6 mph - 0.06 in Snow Light Snow
10:35 PM 33.8 °F 28.6 °F 33.8 °F 100% 29.94 in 1.8 mi ESE 5.8 mph - 0.15 in Snow Light Snow
11:35 PM 33.8 °F 28.6 °F 33.8 °F 100% 29.89 in 2.5 mi ESE 5.8 mph - 0.02 in   Overcast
11:55 PM 33.8 °F 29.6 °F 33.8 °F 100% 29.88 in 2.5 mi ESE 4.6 mph - 0.02 in   Overcast